Location: Springville
(40.7362°N, 82.0326°W)
Time: 03:15:31
(UTC+00:00)

Daily predictions for brighter satellites

Satellite Brightness Start Highest point End
(mag) Time Altitude Azimuth Time Altitude Azimuth Time Altitude Azimuth
BREEZE-M DEB (TANK) 3.4 01:15:19 10° S 01:17:52 27° ESE 01:23:27 10° ENE
Cosmos 1697 Rocket 3.8 01:17:22 10° N 01:22:19 30° NE 01:27:14 10° ESE
Cosmos 2082 Rocket 3.3 01:23:49 10° SSE 01:28:10 24° E 01:32:33 10° NE
Hubble Space Telescope 2.9 01:28:26 10° S 01:29:51 12° SSE 01:31:18 10° SSE
Cosmos 1833 Rocket 2.8 01:26:16 10° S 01:31:43 54° ESE 01:37:13 10° NNE
IGS 5A 4.3 01:28:17 10° SE 01:32:02 34° ENE 01:35:48 10° N
Cosmos 1953 Rocket 3.6 01:28:04 10° S 01:32:31 68° E 01:36:59 10° NNE
USA 305 2.9 01:29:19 10° NW 01:33:31 80° SW 01:37:38 10° SE
USA 308 2.9 01:29:22 10° NW 01:33:38 87° SW 01:37:46 11° SE
SPOT 3 Rocket 4.4 01:29:16 10° SE 01:33:56 34° ENE 01:38:36 10° N
Cosmos 1892 3.3 01:30:14 10° SSW 01:33:59 62° W 01:37:45 10° N
Cosmos 1689 Rocket 4.0 01:31:55 10° N 01:34:26 31° WNW 01:36:55 10° SW
Cosmos 2150 Rocket 4.2 01:30:53 10° NNW 01:36:17 81° WSW 01:41:44 10° SSE
USA 186 3.6 01:33:49 10° SSW 01:36:46 31° W 01:39:36 10° NNW
Resurs 1-3 3.6 01:34:53 10° SSE 01:39:16 77° ENE 01:43:39 10° N
Cosmos 2298 Rocket 4.4 01:35:24 10° NNW 01:40:43 68° WSW 01:45:59 10° S
Cosmos 1125 Rocket 3.6 01:36:52 10° NNW 01:42:13 85° WSW 01:47:31 10° SSE
Cosmos 2279 Rocket 4.1 01:40:13 10° N 01:46:20 59° E 01:52:25 10° SSE
Cosmos 1869 4.0 01:47:37 10° NNW 01:51:24 53° W 01:55:08 10° S
Landsat 7 4.0 01:49:11 11° SSE 01:53:36 55° ENE 01:58:16 10° N
COSMOS 2406 3.2 01:49:13 10° SSW 01:54:51 77° ESE 02:00:34 10° NNE
Cosmos 2058 2.9 01:50:56 10° S 01:55:03 68° E 01:59:13 10° NNE
Cosmos 1842 Rocket 4.1 01:51:46 10° N 01:56:02 42° ENE 01:59:20 16° SE
Cosmos 1825 2.4 01:52:40 10° SSW 01:56:24 73° W 02:00:09 10° N
Cosmos 2369 4.4 01:51:58 10° N 01:57:16 39° ENE 02:01:22 16° ESE
USA 306 3.5 01:53:23 10° WNW 01:57:32 50° SW 02:00:51 15° SSE
NOSS 3-4 (A) 3.9 01:52:26 10° SW 01:58:09 63° NW 02:04:18 10° NNE
NOSS 3-4 (C) 3.9 01:52:32 10° SW 01:58:15 64° NW 02:04:24 10° NNE
OBJECT-B 3.4 01:58:24 10° SW 02:00:45 19° W 02:03:06 10° NW
ERS-1 Rocket 4.5 02:00:52 13° ESE 02:03:43 21° ENE 02:07:27 10° NNE
Cosmos 1076 Rocket 4.1 02:02:51 16° SSE 02:05:54 37° E 02:09:55 10° NNE
Cosmos 1656 4.0 02:00:40 10° NNW 02:06:15 65° WSW 02:11:34 11° S
ATLAS 2AS CENTAUR R/B 3.0 01:59:01 10° SSW 02:06:54 81° ESE 02:14:43 10° NE
Cosmos 1980 Rocket 3.1 02:03:23 10° N 02:08:32 35° ENE 02:12:06 18° ESE
Cosmos 1437 Rocket 3.8 02:06:02 10° NNW 02:09:41 43° W 02:13:22 10° SSW
Resurs 01 Rocket 1.7 02:08:50 13° S 02:12:50 83° WSW 02:17:19 10° NNW
Nadezhda 4 Rocket 4.1 02:07:55 10° SSE 02:13:46 53° E 02:19:45 10° NNE
Cosmos 1437 2.8 02:14:53 10° NNW 02:17:37 57° W 02:19:12 21° S
RESURS DK-1 2.4 02:18:49 10° S 02:22:53 57° ESE 02:26:58 10° NNE
Cosmos 2098 Rocket 2.2 02:22:42 37° SE 02:23:30 51° E 02:26:32 10° NNE
USA 245 4.1 02:22:59 21° SSE 02:26:52 65° ENE 02:31:43 10° N
USA 267 3.4 02:20:45 10° ENE 02:27:02 47° SE 02:33:16 10° SSW
BREEZE-M DEB (TANK) 4.3 02:24:17 10° NW 02:27:41 51° NNE 02:36:57 12° ESE
ATLAS 3B R/B 3.6 02:21:09 10° NNW 02:27:51 42° NE 02:32:46 19° ESE
CENTAUR R/B 4.3 02:21:32 10° NW 02:29:12 39° WSW 02:37:14 10° S
Cosmos 1633 2.4 02:29:09 23° S 02:31:16 82° E 02:34:54 10° N
SPOT 1/Viking Rocket 3.5 02:28:26 21° SSE 02:31:57 85° ENE 02:37:11 10° NNW
MetOp-B 4.2 02:28:46 19° SSE 02:32:45 83° WSW 02:38:09 10° NNW
ISS -1.0 02:32:34 10° NNW 02:34:40 15° NNE 02:36:47 10° NE
Cosmos 2360 4.2 02:29:47 10° NNW 02:35:29 84° WSW 02:38:55 25° SSE
Cosmos 44 Rocket 3.9 02:31:00 10° SW 02:36:08 66° NW 02:41:22 10° NNE
ARIANE 5 R/B 2.9 02:38:33 32° SE 02:40:18 53° ENE 02:44:40 10° N
Cosmos 1933 4.2 02:36:43 10° NNE 02:40:23 32° ENE 02:41:03 30° E
SL-16 R/B 3.9 02:36:45 10° N 02:40:51 20° NE 02:43:41 14° E
Meteor 2-8 Rocket 4.4 02:36:19 10° N 02:42:30 79° E 02:46:14 25° SSE
SPOT 5 3.0 02:44:08 35° ESE 02:45:25 46° ENE 02:49:34 10° N
JB-3 4.5 02:41:28 10° N 02:45:38 80° WNW 02:48:22 20° SSW
CZ-2C R/B 4.1 02:44:55 10° N 02:49:26 64° WNW 02:53:38 11° SSW
OAO 2 Rocket 4.0 02:48:18 10° WSW 02:52:47 34° SSW 02:53:28 33° S
CARTOSAT-1 3.5 02:51:42 39° SSE 02:53:17 88° ENE 02:57:37 10° NNW
Cosmos 2221 3.7 02:49:18 10° NNW 02:53:18 39° W 02:56:12 17° SSW
Cosmos 371 Rocket 3.2 02:59:02 10° NNW 03:03:50 72° ENE 03:05:07 48° SE
Cosmos 923 Rocket 4.4 03:03:16 39° ESE 03:03:57 41° ESE 03:08:57 10° NNE
Terra 2.0 03:04:43 44° ESE 03:05:50 55° ENE 03:10:30 10° N
ERBS 2.3 03:02:40 10° NW 03:05:39 74° NNW 03:05:39 74° NNW
Cosmos 1697 Rocket 3.7 03:01:06 10° NW 03:06:22 40° WSW 03:09:29 22° SSW
Cosmos 1606 4.2 03:06:19 10° NNW 03:09:40 31° W 03:11:14 22° SW
Cosmos 2082 Rocket 3.1 03:06:29 10° SW 03:11:53 47° WNW 03:17:21 10° NNE
Cosmos 2278 3.6 03:08:49 10° NNW 03:14:30 85° WSW 03:16:22 44° SSE
Meteor 2-15 4.5 03:08:49 10° NNW 03:14:53 75° W 03:17:43 33° S
Cosmos 1766 Rocket 3.9 03:18:52 48° E 03:18:52 48° E 03:22:59 10° NNE
BREEZE-M R/B 4.1 03:13:57 10° SW 03:23:48 - ENE 03:17:24 28° SSW
Cosmos 1812 4.3 03:16:48 10° NNE 03:19:23 24° ENE 03:19:23 24° ENE
Cosmos 2195 Rocket 4.4 03:16:45 29° SSW 03:20:08 83° W 03:26:17 10° N
Cosmos 1782 3.0 03:19:28 10° N 03:23:15 59° ENE 03:23:15 59° ENE
Cosmos 2151 3.9 03:23:49 28° SW 03:25:35 44° WNW 03:29:40 10° N
Cosmos 2360 Rocket 3.8 03:26:51 10° N 03:31:11 22° NE 03:33:01 19° E
Cosmos 1092 Rocket 4.3 03:29:20 24° SSW 03:33:10 62° W 03:39:25 10° N
GP-B 3.7 03:29:26 10° N 03:33:44 52° W 03:34:52 40° SW
Cosmos 1328 Rocket 4.0 03:29:58 10° N 03:34:03 47° ENE 03:34:03 47° ENE
Cosmos 2112 Rocket 4.1 03:38:50 55° ESE 03:38:50 55° ESE 03:43:57 10° NNE
Cosmos 332 Rocket 3.6 03:34:17 10° NNW 03:39:11 87° WSW 03:39:38 74° S
Meteor 2-3 Rocket 4.2 03:36:27 27° SW 03:39:26 56° WNW 03:45:02 10° N
Cosmos 1680 Rocket 3.4 03:40:31 65° SE 03:40:51 68° ESE 03:46:06 10° NNE
ERS-1 Rocket 3.7 03:40:52 37° SW 03:42:10 46° W 03:47:00 10° NNW
Cosmos 1809 Rocket 4.3 03:41:14 51° S 03:42:57 83° E 03:49:08 10° N
Cosmos 1151 Rocket 3.0 03:40:33 10° N 03:44:42 80° NNE 03:44:42 80° NNE
Okean 3 Rocket 3.6 03:50:14 78° WNW 03:50:14 78° WNW 03:54:43 10° N
Cosmos 1980 Rocket 3.3 03:47:28 10° NW 03:52:25 32° WSW 03:53:52 28° SW
BREEZE-M DEB (TANK) 3.3 03:48:36 10° WNW 03:52:39 81° SSW 03:55:45 42° SE
BREEZE M DEB (TANK) 4.1 03:49:46 10° WSW 03:53:49 86° NNW 04:22:04 10° ENE
H-2A R/B 4.0 03:55:45 10° N 03:59:50 55° WNW 03:59:53 55° WNW
Cosmos 2322 Rocket 2.3 03:54:49 10° NNW 04:00:24 60° ENE 04:00:59 56° E
Cosmos 1271 Rocket 4.1 03:59:52 10° NNW 04:03:10 33° W 04:03:10 33° W
Meteor 2-21 Rocket 4.3 04:08:05 66° S 04:09:01 85° E 04:15:15 10° N
USA 267 3.9 04:03:44 10° NE 04:10:03 53° NW 04:16:22 10° WSW
Meteor 2-6 Rocket 3.9 04:04:58 10° N 04:10:27 89° E 04:10:37 84° SSE
ISS -1.5 04:08:51 10° NW 04:10:35 26° NNW 04:10:35 26° NNW
ATLAS 3B R/B 3.3 04:11:52 10° NW 04:18:38 46° WSW 04:20:00 42° SW
Cosmos 2237 4.3 04:14:25 10° NNW 04:20:06 65° ENE 04:20:24 64° E
Spot 4 4.2 04:22:24 59° NE 04:22:24 59° NE 04:26:39 10° N
Cosmos 1743 Rocket 4.5 04:23:27 43° NE 04:23:27 43° NE 04:26:38 10° NNE
Cosmos 1624 Rocket 4.0 04:17:15 10° NNW 04:22:13 70° NE 04:22:13 70° NE
Meteor 1-27 Rocket 4.1 04:17:00 10° N 04:22:29 52° ENE 04:22:32 52° ENE
Cosmos 2228 Rocket 4.5 04:19:33 10° N 04:22:34 31° NE 04:22:34 31° NE
Cosmos 1408 Rocket 4.2 04:25:28 53° NW 04:25:28 53° NW 04:29:05 10° N
SL-16 R/B 2.2 04:19:50 10° NNW 04:25:28 66° WSW 04:25:32 66° WSW
Cosmos 2219 Rocket 3.7 04:23:44 10° N 04:28:17 25° NE 04:29:33 23° ENE
Cosmos 1553 Rocket 4.4 04:26:41 10° NNW 04:32:30 49° W 04:33:26 45° WSW
Cosmos 1655 Rocket 4.0 04:32:56 64° SW 04:33:50 76° W 04:40:15 10° N
Cosmos 1420 Rocket 4.3 04:32:14 10° NNW 04:37:14 62° NE 04:37:14 62° NE
Cosmos 2266 Rocket 3.8 04:37:31 72° SW 04:38:03 78° W 04:44:15 10° N
Meteor 1-10 Rocket 4.2 04:33:36 10° NNW 04:39:04 69° W 04:39:04 69° W
USA 234 3.2 04:41:00 62° ESE 04:42:13 84° NE 04:48:48 10° NW
COSMOS 2455 3.5 04:44:29 42° E 04:44:29 42° E 04:49:03 10° NE
Terra 4.0 04:43:36 15° W 04:43:54 15° W 04:46:39 10° NW
COBE Rocket 4.4 04:44:51 52° NW 04:44:51 52° NW 04:48:36 10° NNW
BREEZE-M DEB (TANK) 4.2 04:32:02 10° SW 04:47:20 74° SSE 04:51:49 10° ENE
Cosmos 1452 Rocket 4.3 04:47:14 10° N 04:52:03 43° ENE 04:52:03 43° ENE
ALOS 2 3.5 04:56:16 46° N 04:56:16 46° N 04:59:25 10° N
Cosmos 883 Rocket 4.4 04:51:23 10° N 04:57:35 75° W 04:57:49 74° WSW
Cosmos 2056 Rocket 4.2 04:56:11 10° NNW 05:00:39 48° WNW 05:00:39 48° WNW
Cosmos 972 Rocket 4.2 05:02:20 72° NNE 05:02:20 72° NNE 05:06:58 10° NNE
ATLAS 5 CENTAUR R/B 4.2 05:04:15 10° N 05:08:42 24° NE 05:12:56 13° E
Cosmos 2333 Rocket 2.4 05:04:09 10° NNW 05:09:38 61° ENE 05:09:38 61° ENE
Cosmos 2360 Rocket 2.6 05:10:03 10° NNW 05:14:45 52° WNW 05:14:45 52° WNW
Meteor 1-25 Rocket 4.3 05:17:03 75° NNE 05:17:03 75° NNE 05:22:10 10° N
Nadezhda 2 Rocket 4.4 05:20:58 88° SSW 05:21:02 89° WNW 05:27:26 10° N
Cosmos 2322 3.8 05:19:14 10° NNW 05:24:37 74° NNE 05:24:37 74° NNE
NOSS 3-1 (C) 4.1 05:21:08 10° NNW 05:28:50 78° NE 05:31:18 51° SE
Meteor 1-19 Rocket 4.3 05:26:31 10° N 05:31:45 70° NE 05:31:45 70° NE
Cosmos 2297 Rocket 3.7 05:37:04 26° E 05:37:04 26° E 05:40:44 10° NE
USA 229 DEB 4.3 05:32:56 10° NNW 05:40:13 60° NE 05:43:12 38° ESE
USA 229 4.3 05:33:02 10° NNW 05:40:19 59° NE 05:43:21 37° ESE
Cosmos 1244 Rocket 4.5 05:40:47 68° W 05:40:49 68° W 05:46:58 10° N
Cosmos 2237 Rocket 3.8 05:37:50 10° N 05:42:44 29° NE 05:44:36 24° E
Cosmos 2322 Rocket 4.1 05:40:09 10° WNW 05:42:47 17° W 05:42:47 17° W
Cosmos 2227 Rocket 3.7 05:47:43 24° E 05:47:43 24° E 05:51:23 10° NE
PSLV R/B 4.5 05:44:31 10° NNE 05:48:12 53° N 05:48:12 53° N
Cosmos 2285 Rocket 4.2 05:52:29 10° NNW 05:58:13 56° W 05:58:13 56° W
Meteor 2-4 Rocket 3.8 05:54:17 10° N 06:00:14 74° ENE 06:00:14 74° ENE
NOSS 3-1 (A) 4.2 05:53:01 10° NNW 06:00:43 77° NE 06:04:02 42° SE
CZ-2D R/B 3.9 05:57:03 10° NE 06:01:01 21° E 06:01:03 21° E
COSMOS 2428 3.0 06:01:29 10° NNW 06:06:19 60° WNW 06:06:19 60° WNW
Cosmos 2219 Rocket 2.9 06:07:06 10° NW 06:11:15 42° WNW 06:11:15 42° WNW
Meteor 1-5 Rocket 4.2 06:13:34 81° N 06:13:34 81° N 06:19:04 10° N
Thor Agena Rocket 4.3 06:10:55 10° N 06:15:18 42° WNW 06:15:18 42° WNW
Helios 1A 4.3 06:17:20 35° NE 06:17:20 35° NE 06:20:38 10° N
APEX 4.2 06:20:03 74° NW 06:20:03 74° NW 06:26:05 10° NNE
Okean 1-7 4.2 06:17:52 10° N 06:20:56 40° NNE 06:20:56 40° NNE
Meteor 2-17 Rocket 4.3 06:23:27 80° W 06:23:34 80° W 06:29:38 10° N
Cosmos 1302 Rocket 4.2 06:18:39 10° NNW 06:23:41 64° ENE 06:23:41 64° ENE
COSMOS 2455 4.2 06:27:36 26° W 06:29:25 31° NW 06:34:43 10° NNE
Cosmos 909 Rocket 4.2 06:32:17 61° SE 06:32:51 63° ESE 06:40:00 10° NE
Cosmos 2219 3.2 06:34:37 70° ESE 06:34:37 70° ESE 06:40:17 10° NNE
Cosmos 1709 Rocket 3.8 06:37:29 76° SW 06:37:59 83° W 06:44:23 10° N
NOSS 0 Rocket 3.8 06:32:27 10° NNW 06:38:37 71° WSW 06:38:37 71° WSW
Helios 1B rocket 4.4 06:36:02 10° NE 06:38:41 21° E 06:38:41 21° E
Cosmos 1066 Rocket 4.5 06:35:06 10° N 06:40:56 64° ENE 06:41:47 57° ESE
Timation 2 Rocket 3.9 06:46:12 60° SE 06:46:35 61° ESE 06:52:33 10° NNE
MOZ.5/SAFIR/RUBIN 5/SL-8 3.9 06:47:17 71° N 06:47:17 71° N 06:51:32 10° NNW
Cosmos 2084 Rocket 4.4 06:48:11 10° NNW 06:52:17 45° NE 06:52:38 44° ENE
Cosmos 2333 Rocket 4.2 06:49:44 10° WNW 06:51:37 16° WNW 06:51:37 16° WNW
ATLAS 5 CENTAUR R/B 2.3 06:48:00 10° NW 06:53:49 76° WSW 06:54:21 71° SSW
Cosmos 2082 4.2 06:54:29 45° ESE 06:54:59 47° ESE 07:00:26 10° NE
Cosmos 2251 Rocket 4.2 06:56:04 42° ESE 06:56:23 43° ESE 07:01:21 10° NNE
Cosmos 1703 Rocket 4.5 06:52:21 10° NNW 06:55:22 41° NW 06:55:22 41° NW
Meteor 1-11 Rocket 3.5 06:56:39 76° WSW 06:56:50 77° W 07:02:23 10° N
Cosmos 1536 3.8 06:58:20 44° N 06:58:20 44° N 07:01:10 10° N
Lacrosse 5 1.8 06:57:57 78° ENE 06:57:57 78° ENE 07:02:42 10° NE
Cosmos 2184 Rocket 4.4 06:59:24 42° SE 07:01:02 54° E 07:07:07 10° NNE
SL-16 R/B 2.7 07:00:09 42° SE 07:02:14 69° ENE 07:08:23 10° N
Cosmos 1980 3.7 06:57:10 10° NNW 07:02:27 62° W 07:02:27 62° W
Resurs 1-4 Rocket 2.0 06:57:44 10° NNE 07:03:04 76° ESE 07:03:26 72° SE
Cosmos 1733 Rocket 3.8 07:13:20 44° ESE 07:13:35 45° E 07:17:50 10° NNE
Cosmos 2297 Rocket 2.9 07:18:52 39° W 07:19:50 42° WNW 07:25:13 10° N
AQUA 3.8 07:16:37 10° NNE 07:21:24 71° ESE 07:21:46 67° SE
NPP 3.5 07:17:50 10° NNE 07:23:16 90° E 07:24:07 65° SSW
Cosmos 2074 Rocket 3.9 07:23:14 52° S 07:24:53 87° E 07:31:08 10° N
Cosmos 2237 Rocket 2.7 07:21:35 10° NW 07:26:22 41° W 07:26:22 41° W
ASTEX 1 4.1 07:29:44 37° WNW 07:29:44 37° WNW 07:33:50 10° NNW
Cosmos 2227 Rocket 2.7 07:29:32 41° W 07:30:37 46° WNW 07:36:03 10° NNE
ADEOS Rocket 2.7 07:29:11 43° SSE 07:31:09 84° ENE 07:36:39 10° NNW
Cosmos 1743 3.8 07:39:45 34° NW 07:39:45 34° NW 07:42:36 10° N
CZ-2D R/B 2.5 07:36:07 10° N 07:41:18 51° WNW 07:42:22 44° WSW
Cosmos 192 4.4 07:36:50 10° NNW 07:41:46 76° ENE 07:43:44 37° SSE
Cosmos 2181 Rocket 4.4 07:36:12 10° NNW 07:42:11 45° W 07:43:19 41° WSW
Meteor 1-28 Rocket 4.1 07:41:29 36° ESE 07:42:25 45° ENE 07:46:00 10° N
ADEOS II 2.0 07:38:00 10° NNE 07:43:18 82° ESE 07:44:44 50° S
Meteor 2-9 Rocket 4.1 07:43:10 47° S 07:44:43 78° E 07:50:04 10° NNE
NOSS 3-3 (A) 4.5 07:44:35 33° SSE 07:46:32 44° ESE 07:52:25 10° NE
IRS-1D 3.7 07:42:09 10° NNE 07:47:06 64° ESE 07:48:42 41° SSE
SL-16 R/B 2.1 07:45:16 10° NNW 07:50:57 80° WSW 07:53:47 31° SSE
Cosmos 614 Rocket 4.0 07:50:06 52° SW 07:51:14 68° WNW 07:56:27 10° NNE
Iridium 4 Rocket 3.8 07:47:11 10° N 07:52:45 76° E 07:55:47 30° S
MINOTAUR 4 R/B 4.0 07:55:21 76° ESE 07:55:31 80° ENE 07:59:06 10° N
Cosmos 2263 Rocket 2.7 07:54:29 31° SSE 07:56:55 54° ESE 08:02:26 10° NNE
Cosmos 1975 2.7 07:57:17 68° SSW 07:57:48 87° WNW 08:01:54 10° N
ATLAS CENTAUR R/B 2.8 07:57:40 22° SE 07:58:24 23° ESE 08:01:30 10° ENE
Cosmos 2221 Rocket 3.7 07:56:26 10° NNW 08:00:53 55° W 08:01:25 51° WSW
Landsat 4 3.5 07:58:04 10° NNE 08:01:47 81° ESE 08:02:13 67° S
CZ-4C R/B 3.7 07:54:45 10° NNW 08:01:58 57° NE 08:10:15 10° SE
Cosmos 407 Rocket 3.6 08:01:06 38° S 08:03:10 74° ESE 08:08:26 10° NNE
Cosmos 1461 3.0 08:05:09 50° SSW 08:06:20 82° ESE 08:10:50 10° NE
Cosmos 1610 Rocket 4.5 08:04:43 35° SSW 08:07:28 70° W 08:13:49 10° N
Cosmos 1707 3.3 08:04:17 10° N 08:08:04 53° E 08:10:01 25° SSE
Cosmos 2344 3.6 08:04:50 30° SSW 08:08:53 74° ESE 08:16:28 10° NE
Meteor 1-29 3.1 08:07:36 10° N 08:10:46 54° WNW 08:10:46 54° WNW
Cosmos 2341 Rocket 4.3 08:06:43 21° S 08:11:02 66° E 08:17:12 10° NNE
Helios 1B rocket 3.6 08:10:57 10° N 08:14:29 28° WNW 08:14:58 28° W
Cosmos 1674 Rocket 3.5 08:12:44 10° NNW 08:17:08 66° W 08:18:38 39° SSW
Cosmos 1238 Rocket 2.4 08:18:43 53° WNW 08:18:43 53° WNW 08:21:51 10° N
Cosmos 1842 3.8 08:18:42 10° NNW 08:22:16 37° W 08:22:21 37° W
Nadezhda 3 Rocket 4.1 08:16:27 10° NNW 08:22:43 60° W 08:26:34 24° SSW
Cosmos 1943 4.0 08:24:53 10° NNW 08:30:30 54° ENE 08:36:03 10° SE
BREEZE-M DEB (TANK) 2.6 08:30:27 49° W 08:30:58 67° NNW 08:33:13 10° NE
IRS-P3 4.3 08:26:59 10° NNE 08:32:20 74° ESE 08:36:16 19° S
IDEFIX/ARIANE 42P 2.6 08:28:30 10° N 08:33:37 63° WNW 08:36:25 27° SW
CBERS-1 4.1 08:28:40 10° N 08:33:44 60° WNW 08:36:24 27° SW
Cosmos 1975 Rocket 4.2 08:31:09 10° N 08:35:23 44° ENE 08:39:32 10° SSE
ATLAS 5 CENTAUR R/B 4.4 08:35:18 10° W 08:35:47 11° W 08:35:47 11° W
Cosmos 1378 Rocket 3.9 08:34:06 10° NNW 08:38:14 43° W 08:39:54 29° SW
CZ-2C R/B 3.8 08:34:15 10° NNE 08:38:22 32° E 08:42:30 10° SSE
Cosmos 1340 3.5 08:36:34 10° N 08:40:14 50° ENE 08:43:52 10° SSE
Lacrosse 5 3.7 08:37:08 10° W 08:41:09 24° NNW 08:45:13 10° NNE
Resurs 1-4 Rocket 4.1 08:39:22 10° NNW 08:42:12 15° WNW 08:44:30 11° W
USA 215 3.6 08:36:40 10° NE 08:43:05 57° SE 08:47:58 18° SSW
Cosmos 1400 Rocket 3.9 08:40:33 11° SSE 08:44:03 41° E 08:47:45 10° NNE
Cosmos 1908 Rocket 3.8 08:42:21 28° SW 08:44:16 48° W 08:48:28 10° N
Cosmos 1626 3.8 08:41:07 10° NNE 08:44:29 33° ENE 08:47:50 10° SE
Cosmos 1356 Rocket 4.1 08:44:46 27° WSW 08:46:10 36° WNW 08:49:54 10° N
SL-16 R/B 3.9 08:45:15 17° WSW 08:46:21 18° W 08:50:24 10° NW
Meteor 1-12 Rocket 4.4 08:45:08 11° S 08:50:28 77° E 08:56:11 10° NNE
Cosmos 1674 2.8 08:46:50 10° N 08:50:40 75° E 08:54:28 10° SSE
BREEZE-M DEB (TANK) 4.1 08:45:45 14° WSW 08:54:38 59° NNW 08:57:56 10° NE
Cosmos 1190 Rocket 4.3 08:51:32 22° SW 08:54:50 53° WNW 09:00:02 10° N
SL-8 R/B 4.1 08:53:11 18° W 08:56:42 60° NNW 09:01:28 10° ENE
Cosmos 1140 Rocket 4.2 08:54:55 20° WSW 08:58:02 40° WNW 09:02:58 10° N
MSX 4.2 09:00:11 10° N 09:05:39 48° WNW 09:10:10 15° SW
CZ-4B R/B 3.3 09:01:20 10° N 09:06:13 79° WNW 09:10:43 11° SSW
ASTRO E2 4.2 09:05:37 17° SSW 09:07:04 21° S 09:10:04 10° SE
CZ-4C R/B 4.0 09:04:27 16° SSW 09:07:18 36° W 09:11:13 10° NNW
ERS-1 4.5 09:03:01 10° N 09:07:59 66° WNW 09:12:27 12° SSW
Cosmos 1954 Rocket 4.1 09:04:41 16° SSW 09:08:57 64° WNW 09:14:15 10° NNE
Cosmos 44 3.3 09:04:00 10° NW 09:09:12 71° WSW 09:14:03 10° SSE
Cosmos 1025 Rocket 3.6 09:05:08 10° N 09:09:25 58° E 09:13:40 10° SSE
BREEZE-M DEB (TANK) 3.1 09:07:14 10° WNW 09:10:14 54° NNE 09:13:26 10° E
Cosmos 1844 Rocket 3.7 09:05:16 10° S 09:10:34 44° ESE 09:15:56 10° NE
ARIANE 5 R/B 2.7 09:05:46 10° N 09:10:52 61° WNW 09:15:41 12° SSW
FENGYUN 3A 4.2 09:12:35 10° NNE 09:17:58 61° ESE 09:23:17 10° S
Cosmos 1603 3.7 09:12:27 10° NNW 09:18:00 62° WSW 09:23:33 10° S
CZ-2D R/B 3.5 09:14:41 10° N 09:18:38 60° WNW 09:22:36 10° SSW
Milstar 3 4.0 09:15:44 12° SW 09:20:29 24° SSE 09:25:52 10° ESE
ADEOS II 4.1 09:19:45 10° NNW 09:22:16 14° WNW 09:24:46 10° W
Spot 4 Rocket 4.0 09:18:01 10° N 09:23:12 80° WNW 09:28:21 10° SSW
Okean 2 Rocket 3.4 09:19:10 10° S 09:23:39 73° E 09:28:11 10° NNE
CZ-2C R/B 2.9 09:21:42 10° NNE 09:25:25 74° E 09:29:10 10° S
Cosmos 1782 Rocket 4.5 09:23:30 13° SW 09:26:52 31° WNW 09:30:47 10° NNW
Sich 1 Rocket 3.6 09:25:21 10° SSW 09:29:42 66° W 09:34:06 10° N
Cosmos 1805 3.7 09:26:37 10° SSW 09:30:20 44° W 09:34:05 10° N
MOS 1 Rocket 4.0 09:27:09 10° SSE 09:32:09 69° ENE 09:37:26 10° N
Cosmos 2366 rocket 4.5 09:27:15 10° SSW 09:33:17 45° WNW 09:39:21 10° N
ATLAS CENTAUR R/B 2.5 09:33:50 10° WSW 09:37:07 28° NW 09:40:35 10° NNE
CZ-3 R/B 4.2 09:15:06 11° SW 09:37:14 32° S 09:45:15 10° ESE
ATLAS 2AS CENTAUR R/B 4.5 09:33:53 10° NNW 09:40:37 37° NE 09:46:51 10° ESE
Cosmos 1346 Rocket 3.0 09:37:04 10° N 09:40:59 74° E 09:44:52 10° SSE
Cosmos 2263 Rocket 3.6 09:36:40 10° WSW 09:41:10 24° NW 09:45:42 10° N
Cosmos 2151 Rocket 3.6 09:38:12 10° S 09:42:35 89° W 09:47:01 10° N
PAYLOAD A 4.4 09:39:07 10° N 09:44:23 52° WNW 09:49:32 10° SSW
Cosmos 1726 2.9 09:40:59 10° S 09:44:31 53° E 09:48:06 10° NNE
SL-14 R/B 3.2 09:40:43 10° NNW 09:44:34 67° W 09:48:27 10° S
ALOS 2.3 09:44:28 10° N 09:49:09 73° WNW 09:53:46 10° SSW
GEOS 3 Rocket 4.1 09:45:19 10° S 09:50:21 41° WSW 09:55:23 10° NW
CZ-4C R/B 3.6 09:43:35 10° NW 09:50:33 38° WSW 09:58:14 10° S
Meteor 1-22 Rocket 4.3 09:45:47 10° S 09:51:36 88° W 09:57:13 10° N
